Regional Weather Roundup
Issued by NWS

Home | Current Version | Previous Version | Text Only | Print | Product List | Glossary Off
Versions: 1 2 3 4 5 6 7 8 9 10 11 12 13 14 15 16 17 18 19 20 21 22 23 24 25 26 27 28 29 30 31 32 33 34 35 36 37 38 39 40 41 42 43 44 45 46 47 48 49 50

000
ASUS43 KOAX 222202
RWRNE

WEATHER ROUNDUP FOR NEBRASKA
NATIONAL WEATHER SERVICE OMAHA NE
500 PM CDT SUN OCT 22 2017

NOTES: SATELLITE DATA IS BEING USED TO AUGMENT CLOUD COVER ABOVE
       12000 FEET.
       "FAIR" INDICATES FEW OR NO CLOUDS BELOW 12,000 FEET WITH NO
       SIGNIFICANT WEATHER AND/OR OBSTRUCTIONS TO VISIBILITY.


NEZ001>004-019>022-054>056-222300-
NEBRASKA PANHANDLE

CITY           SKY/WX    TMP DP  RH WIND       PRES   REMARKS
SCOTTSBLUFF    CLOUDY    65  28  24 W17G24    29.99F
ALLIANCE       CLOUDY    65  29  25 W21G30    29.96S
CHADRON        CLOUDY    70  26  19 W15G25    29.90F
GORDON         FAIR      69  29  22 W16G24    29.91F
KIMBALL        CLOUDY    66  27  22 NW17G23   30.05S
SIDNEY         SUNNY     69  28  21 NW20G30   30.02F
$$

NEZ057>060-069>072-079>082-222300-
SOUTHWEST NEBRASKA

CITY           SKY/WX    TMP DP  RH WIND       PRES   REMARKS
NORTH PLATTE   SUNNY     71  32  23 W15       29.98S
IMPERIAL       SUNNY     72  25  17 W12G25    30.01F
LEXINGTON      SUNNY     71  24  17 SW12      29.99F
MCCOOK         SUNNY     72  24  16 SW14      30.01F
OGALLALA       SUNNY     71  28  19 SW12      29.98F
$$

NEZ005>010-023>029-035>040-094-222300-
NORTH CENTRAL NEBRASKA

CITY           SKY/WX    TMP DP  RH WIND       PRES   REMARKS
VALENTINE      SUNNY     67  30  25 W9        29.89F
AINSWORTH      SUNNY     66  32  27 W10       29.92S
BROKEN BOW     SUNNY     69  28  21 SW13G21   29.96F
O`NEILL        SUNNY     69  32  25 SW13      29.93S
ORD            SUNNY     68  30  24 SW14      29.95F
THEDFORD       SUNNY     70  32  25 W13       29.95S
$$

NEZ041-046>049-061>064-073>077-083>087-222300-
SOUTH CENTRAL NEBRASKA

CITY           SKY/WX    TMP DP  RH WIND       PRES   REMARKS
GRAND ISLAND   SUNNY     69  28  21 W15       30.01F
AURORA         SUNNY     69  25  18 W13       30.00S
HASTINGS       SUNNY     68  26  20 W14       30.02F
HEBRON         SUNNY     70  25  18 W9        30.04F
HOLDREGE       SUNNY     69  28  21 SW14      30.01F
KEARNEY        SUNNY     68  26  20 SW12G22   30.01F
YORK           SUNNY     68  27  21 W15       30.01S
$$

NEZ011>018-030>034-042>045-222300-
NORTHEAST NEBRASKA

CITY           SKY/WX    TMP DP  RH WIND       PRES   REMARKS
NORFOLK        SUNNY     68  24  19 SW13      29.96S
ALBION         SUNNY     69  31  24 W13       29.97F
BLAIR          SUNNY     69  30  23 SW14      30.01F
COLUMBUS       SUNNY     69  27  20 SW9       29.99F
FREMONT        SUNNY     68  25  19 SW7       30.00F
TEKAMAH        SUNNY     70  23  17 SW13G18   29.98F
WAYNE          SUNNY     67  19  16 SW12G18   29.96S
$$

NEZ050>053-065>068-078-088>093-222300-
SOUTHEAST NEBRASKA

CITY           SKY/WX    TMP DP  RH WIND       PRES   REMARKS
LINCOLN        SUNNY     70  23  17 SW15G22   30.02F
OMAHA EPPLEY   MOSUNNY   69  28  21 S10       30.01F
BEATRICE       SUNNY     69  28  21 SW12      30.03F
FALLS CITY     SUNNY     67  35  30 SW6       30.06F HAZE
NEBRASKA CITY  SUNNY     67  31  26 SW8       30.05F
PLATTSMOUTH    SUNNY     68  31  25 S10       30.03F
$$

NEZ044-045-051>053-067-222300-
OMAHA AREA

CITY           SKY/WX    TMP DP  RH WIND       PRES   REMARKS
OMAHA EPPLEY   MOSUNNY   69  28  21 S10       30.01F
BLAIR          SUNNY     69  30  23 SW14      30.01F
FREMONT        SUNNY     68  25  19 SW7       30.00F
MILLARD        SUNNY     70  30  22 SW6       30.01F
PLATTSMOUTH    SUNNY     68  31  25 S10       30.03F
WAHOO          FAIR      71  21  15 SW13      30.00F
$$




USA.gov is the U.S. government's official web portal to all federal, state and local government web resources and services.